When you browse on this site, cookies collect data to enhance your experience and personalize the content and advertising you see.
Visit our Privacy Policy to learn more. By continuing to use the site, you agree to this use of cookies and data.
  • En España
  • Lista de países
  • Para 7 días
  • Temperatura del agua
  • Mapa Satelital
  • El tiempo en el mapa
  • Informadores
  • user-avatar
    Iniciar sesión

    Tiempo cada hora Makove

    Hoy, 19 Marzo, Martes

    Tiempo Temperatura Precipitaciones Viento Presión Humedad
    00:00 +5°C° 0 mm 6 mps 751 mmHg 68%
    01:00 +5°C° 0 mm 5 mps 751 mmHg 70%
    02:00 +4°C° 0 mm 4 mps 750 mmHg 75%
    03:00 +4°C° 0 mm 4 mps 750 mmHg 76%
    04:00 +3°C° 0 mm 4 mps 751 mmHg 78%
    05:00 +3°C° 0 mm 4 mps 751 mmHg 80%
    06:00 +2°C° 0 mm 5 mps 751 mmHg 77%
    07:00 +3°C° 0 mm 5 mps 751 mmHg 74%
    08:00 +5°C° 0 mm 5 mps 752 mmHg 70%
    09:00 +6°C° 0 mm 5 mps 752 mmHg 64%
    10:00 +8°C° 0 mm 5 mps 752 mmHg 58%
    11:00 +10°C° 0 mm 5 mps 752 mmHg 52%
    12:00 +12°C° 0 mm 5 mps 752 mmHg 48%
    13:00 +12°C° 0 mm 4 mps 752 mmHg 44%
    14:00 +14°C° 0 mm 3 mps 752 mmHg 39%
    15:00 +14°C° 0 mm 3 mps 752 mmHg 40%
    16:00 +15°C° 0 mm 2 mps 752 mmHg 42%
    17:00 +15°C° 0 mm 2 mps 752 mmHg 43%
    18:00 +13°C° 0 mm 2 mps 752 mmHg 47%
    19:00 +12°C° 0 mm 2 mps 752 mmHg 51%
    20:00 +10°C° 0 mm 2 mps 752 mmHg 55%
    21:00 +9°C° 0 mm 3 mps 752 mmHg 58%
    22:00 +8°C° 0 mm 3 mps 752 mmHg 61%
    23:00 +8°C° 0 mm 3 mps 753 mmHg 65%

    Mañana, 20 Marzo, Miércoles

    Tiempo Temperatura Precipitaciones Viento Presión Humedad
    00:00 +7°C° 0 mm 3 mps 753 mmHg 67%
    01:00 +7°C° 0 mm 3 mps 753 mmHg 70%
    02:00 +6°C° 0 mm 2 mps 753 mmHg 72%
    03:00 +6°C° 0 mm 2 mps 753 mmHg 73%
    04:00 +6°C° 0 mm 2 mps 753 mmHg 73%
    05:00 +5°C° 0 mm 2 mps 753 mmHg 74%
    06:00 +7°C° 0 mm 1 mps 753 mmHg 71%
    07:00 +8°C° 0 mm 1 mps 753 mmHg 68%
    08:00 +8°C° 0 mm 1 mps 754 mmHg 65%
    09:00 +9°C° 0 mm 1 mps 754 mmHg 63%
    10:00 +9°C° 0 mm 2 mps 754 mmHg 60%
    11:00 +12°C° 0 mm 2 mps 754 mmHg 58%
    12:00 +10°C° 0 mm 3 mps 754 mmHg 61%
    13:00 +9°C° 0 mm 5 mps 754 mmHg 64%
    14:00 +9°C° 0 mm 6 mps 755 mmHg 67%
    15:00 +9°C° 0 mm 5 mps 755 mmHg 66%
    16:00 +8°C° 0 mm 5 mps 755 mmHg 65%
    17:00 +8°C° 0 mm 5 mps 755 mmHg 63%
    18:00 +7°C° 0 mm 4 mps 755 mmHg 66%
    19:00 +6°C° 0 mm 4 mps 755 mmHg 69%
    20:00 +5°C° 0 mm 3 mps 756 mmHg 72%
    21:00 +5°C° 0 mm 3 mps 756 mmHg 73%
    22:00 +4°C° 0 mm 3 mps 756 mmHg 73%
    23:00 +4°C° 0 mm 3 mps 757 mmHg 74%

    Pasado mañana, 21 Marzo, Jueves

    Tiempo Temperatura Precipitaciones Viento Presión Humedad
    00:00 +3°C° 0 mm 3 mps 757 mmHg 73%
    01:00 +3°C° 0 mm 3 mps 757 mmHg 73%
    02:00 +3°C° 0 mm 3 mps 757 mmHg 72%
    03:00 +2°C° 0 mm 3 mps 757 mmHg 73%
    04:00 +2°C° 0 mm 3 mps 757 mmHg 74%
    05:00 +1°C° 0 mm 3 mps 757 mmHg 76%
    06:00 +2°C° 0 mm 3 mps 757 mmHg 72%
    07:00 +3°C° 0 mm 3 mps 757 mmHg 68%
    08:00 +4°C° 0 mm 3 mps 757 mmHg 64%
    09:00 +5°C° 0 mm 4 mps 757 mmHg 57%
    10:00 +6°C° 0 mm 4 mps 757 mmHg 50%
    11:00 +7°C° 0 mm 5 mps 757 mmHg 43%
    12:00 +8°C° 0 mm 5 mps 757 mmHg 43%
    13:00 +9°C° 0 mm 6 mps 756 mmHg 42%
    14:00 +9°C° 0 mm 6 mps 756 mmHg 41%
    15:00 +9°C° 0 mm 6 mps 755 mmHg 43%
    16:00 +9°C° 0 mm 6 mps 755 mmHg 44%
    17:00 +9°C° 0 mm 6 mps 755 mmHg 45%
    18:00 +8°C° 0 mm 5 mps 755 mmHg 52%
    19:00 +7°C° 0 mm 4 mps 755 mmHg 58%
    20:00 +8°C° 0 mm 3 mps 756 mmHg 65%
    21:00 +7°C° 0 mm 3 mps 756 mmHg 69%
    22:00 +5°C° 0 mm 3 mps 756 mmHg 73%
    23:00 +5°C° 0 mm 2 mps 756 mmHg 77%

    22 Marzo, Viernes

    Tiempo Temperatura Precipitaciones Viento Presión Humedad
    00:00 +5°C° 0 mm 2 mps 756 mmHg 78%
    01:00 +5°C° 0 mm 2 mps 756 mmHg 80%
    02:00 +3°C° 0 mm 3 mps 756 mmHg 81%
    03:00 +3°C° 0 mm 3 mps 756 mmHg 82%
    04:00 +4°C° 0 mm 2 mps 756 mmHg 84%
    05:00 +4°C° 0 mm 2 mps 756 mmHg 85%
    06:00 +4°C° 0 mm 3 mps 756 mmHg 82%
    07:00 +4°C° 0 mm 3 mps 756 mmHg 79%
    08:00 +5°C° 0 mm 4 mps 756 mmHg 76%
    09:00 +6°C° 0 mm 4 mps 756 mmHg 70%
    10:00 +8°C° 0 mm 5 mps 755 mmHg 64%
    11:00 +9°C° 0 mm 5 mps 755 mmHg 57%
    12:00 +10°C° 0 mm 5 mps 754 mmHg 59%
    13:00 +10°C° 0 mm 5 mps 754 mmHg 61%
    14:00 +11°C° 0 mm 6 mps 754 mmHg 63%
    15:00 +12°C° 0 mm 5 mps 753 mmHg 68%
    16:00 +10°C° 0 mm 5 mps 753 mmHg 73%
    17:00 +11°C° 0 mm 4 mps 752 mmHg 78%
    18:00 +10°C° 0 mm 4 mps 752 mmHg 81%
    19:00 +8°C° 0 mm 4 mps 753 mmHg 84%
    20:00 +8°C° 0 mm 3 mps 753 mmHg 87%
    21:00 +7°C° 0 mm 4 mps 753 mmHg 87%
    22:00 +7°C° 0 mm 4 mps 753 mmHg 86%
    23:00 +7°C° 0 mm 5 mps 752 mmHg 85%

    23 Marzo, Sábado

    Tiempo Temperatura Precipitaciones Viento Presión Humedad
    00:00 +7°C° 0 mm 4 mps 753 mmHg 85%
    01:00 +7°C° 0 mm 4 mps 753 mmHg 85%
    02:00 +7°C° 0 mm 4 mps 753 mmHg 85%
    03:00 +6°C° 0 mm 4 mps 753 mmHg 87%
    04:00 +5°C° 0 mm 4 mps 753 mmHg 88%
    05:00 +5°C° 0 mm 4 mps 753 mmHg 89%
    06:00 +5°C° 0 mm 5 mps 753 mmHg 80%
    07:00 +5°C° 0 mm 5 mps 753 mmHg 71%
    08:00 +6°C° 0 mm 5 mps 754 mmHg 62%
    09:00 +7°C° 0 mm 5 mps 754 mmHg 54%
    10:00 +8°C° 0 mm 6 mps 754 mmHg 46%
    11:00 +9°C° 0 mm 6 mps 754 mmHg 37%
    12:00 +9°C° 0 mm 6 mps 754 mmHg 35%
    13:00 +10°C° 0 mm 6 mps 754 mmHg 34%
    14:00 +11°C° 0 mm 6 mps 753 mmHg 32%
    15:00 +10°C° 0 mm 5 mps 753 mmHg 33%
    16:00 +10°C° 0 mm 5 mps 753 mmHg 34%
    17:00 +10°C° 0 mm 5 mps 753 mmHg 35%
    18:00 +10°C° 0 mm 4 mps 753 mmHg 40%
    19:00 +8°C° 0 mm 3 mps 754 mmHg 44%
    20:00 +7°C° 0 mm 2 mps 754 mmHg 49%
    21:00 +8°C° 0 mm 1 mps 754 mmHg 50%
    22:00 +8°C° 0 mm 1 mps 754 mmHg 51%
    23:00 +6°C° 0 mm 0 mps 754 mmHg 52%

    24 Marzo, Domingo

    Tiempo Temperatura Precipitaciones Viento Presión Humedad
    00:00 +7°C° 0 mm 1 mps 754 mmHg 52%
    01:00 +7°C° 0 mm 1 mps 754 mmHg 52%
    02:00 +6°C° 0 mm 2 mps 754 mmHg 52%
    03:00 +6°C° 0 mm 2 mps 754 mmHg 54%
    04:00 +6°C° 0 mm 2 mps 754 mmHg 57%
    05:00 +6°C° 0 mm 2 mps 754 mmHg 60%
    06:00 +7°C° 0 mm 2 mps 754 mmHg 66%
    07:00 +7°C° 0 mm 2 mps 754 mmHg 72%
    08:00 +8°C° 0 mm 2 mps 754 mmHg 78%
    09:00 +10°C° 0 mm 2 mps 754 mmHg 70%
    10:00 +12°C° 0 mm 2 mps 754 mmHg 63%
    11:00 +14°C° 0 mm 2 mps 753 mmHg 56%
    12:00 +15°C° 0 mm 2 mps 753 mmHg 53%
    13:00 +15°C° 0 mm 2 mps 753 mmHg 50%
    14:00 +16°C° 0 mm 2 mps 752 mmHg 47%
    15:00 +16°C° 0 mm 2 mps 752 mmHg 48%
    16:00 +16°C° 0 mm 2 mps 751 mmHg 49%
    17:00 +16°C° 0 mm 1 mps 751 mmHg 49%
    18:00 +15°C° 0 mm 1 mps 751 mmHg 54%
    19:00 +13°C° 0 mm 1 mps 751 mmHg 58%
    20:00 +12°C° 0 mm 1 mps 751 mmHg 62%
    21:00 +12°C° 0 mm 2 mps 751 mmHg 64%
    22:00 +10°C° 0 mm 2 mps 750 mmHg 66%
    23:00 +10°C° 0 mm 2 mps 750 mmHg 68%
    Mostrar más